Time,TemperatureF,DewpointF,PressureIn,WindDirection,WindDirectionDegrees,WindSpeedMPH,WindSpeedGustMPH,Humidity,HourlyPrecipIn,Conditions,Clouds,dailyrainin,SoftwareType,DateUTC
2013-03-02 00:01:00,52.0,15.0,25.40,NNW,331,1.0,4.0,23,-99.99,,,-99.99,,2013-03-02 08:01:00,
2013-03-02 00:11:00,53.0,15.0,25.40,NNE,22,2.0,6.0,22,-99.99,,,-99.99,,2013-03-02 08:11:00,
2013-03-02 00:21:00,53.0,16.0,25.40,SSW,198,1.0,4.0,23,-99.99,,,-99.99,,2013-03-02 08:21:00,
2013-03-02 00:31:00,52.0,17.0,25.43,SE,136,2.0,5.0,25,-99.99,,,-99.99,,2013-03-02 08:31:00,
2013-03-02 00:42:00,53.0,16.0,25.40,SSW,212,1.0,3.0,23,-99.99,,,-99.99,,2013-03-02 08:42:00,
2013-03-02 00:52:00,51.0,17.0,25.43,SSW,206,2.0,3.0,26,-99.99,,,-99.99,,2013-03-02 08:52:00,
2013-03-02 01:01:00,51.0,17.0,25.43,SSW,206,2.0,3.0,26,-99.99,,,-99.99,,2013-03-02 09:01:00,
2013-03-02 01:11:00,50.0,17.0,25.43,South,190,2.0,4.0,27,-99.99,,,-99.99,,2013-03-02 09:11:00,
2013-03-02 01:21:00,51.0,17.0,25.43,SSW,202,2.0,3.0,26,-99.99,,,-99.99,,2013-03-02 09:21:00,
2013-03-02 01:31:00,50.0,18.0,25.43,South,183,1.0,3.0,28,-99.99,,,-99.99,,2013-03-02 09:31:00,
2013-03-02 01:42:00,49.0,19.0,25.46,SSE,163,2.0,4.0,30,-99.99,,,-99.99,,2013-03-02 09:42:00,
2013-03-02 01:51:00,49.0,20.0,25.46,South,179,3.0,5.0,31,-99.99,,,-99.99,,2013-03-02 09:51:00,
2013-03-02 02:01:00,49.0,20.0,25.46,South,179,3.0,5.0,31,-99.99,,,-99.99,,2013-03-02 10:01:00,
2013-03-02 02:14:00,50.0,19.0,25.46,SSE,168,2.0,5.0,29,-99.99,,,-99.99,,2013-03-02 10:14:00,
2013-03-02 02:21:00,52.0,18.0,25.43,ESE,104,2.0,6.0,26,-99.99,,,-99.99,,2013-03-02 10:21:00,
2013-03-02 02:31:00,55.0,17.0,25.40,ENE,58,6.0,12.0,22,-99.99,,,-99.99,,2013-03-02 10:31:00,
2013-03-02 02:42:00,57.0,16.0,25.40,ENE,61,6.0,10.0,20,-99.99,,,-99.99,,2013-03-02 10:42:00,
2013-03-02 02:51:00,57.0,15.0,25.37,ENE,63,4.0,7.0,19,-99.99,,,-99.99,,2013-03-02 10:51:00,
2013-03-02 03:01:00,57.0,15.0,25.37,ENE,63,4.0,7.0,19,-99.99,,,-99.99,,2013-03-02 11:01:00,
2013-03-02 03:11:00,56.0,17.0,25.40,East,84,3.0,7.0,21,-99.99,,,-99.99,,2013-03-02 11:11:00,
2013-03-02 03:21:00,52.0,19.0,25.43,SSE,168,2.0,4.0,27,-99.99,,,-99.99,,2013-03-02 11:21:00,
2013-03-02 03:31:00,52.0,18.0,25.46,East,97,3.0,7.0,26,-99.99,,,-99.99,,2013-03-02 11:31:00,
2013-03-02 03:41:00,57.0,17.0,25.40,ENE,69,5.0,12.0,21,-99.99,,,-99.99,,2013-03-02 11:41:00,
2013-03-02 03:52:00,56.0,17.0,25.40,East,97,4.0,8.0,21,-99.99,,,-99.99,,2013-03-02 11:52:00,
2013-03-02 04:02:00,56.0,17.0,25.40,East,97,4.0,8.0,21,-99.99,,,-99.99,,2013-03-02 12:02:00,
2013-03-02 04:11:00,56.0,18.0,25.40,East,97,4.0,7.0,22,-99.99,,,-99.99,,2013-03-02 12:11:00,
2013-03-02 04:21:00,56.0,18.0,25.40,ESE,108,5.0,7.0,22,-99.99,,,-99.99,,2013-03-02 12:21:00,
2013-03-02 04:32:00,56.0,17.0,25.40,East,98,4.0,8.0,21,-99.99,,,-99.99,,2013-03-02 12:32:00,
2013-03-02 04:43:00,56.0,17.0,25.40,ESE,102,3.0,8.0,21,-99.99,,,-99.99,,2013-03-02 12:43:00,
2013-03-02 04:53:00,56.0,17.0,25.40,ESE,102,3.0,8.0,21,-99.99,,,-99.99,,2013-03-02 12:53:00,
2013-03-02 05:01:00,55.0,17.0,25.40,ENE,78,3.0,6.0,22,-99.99,,,-99.99,,2013-03-02 13:01:00,
2013-03-02 05:11:00,55.0,18.0,25.40,East,98,3.0,7.0,23,-99.99,,,-99.99,,2013-03-02 13:11:00,
2013-03-02 05:21:00,55.0,17.0,25.40,East,100,2.0,4.0,22,-99.99,,,-99.99,,2013-03-02 13:21:00,
2013-03-02 05:31:00,52.0,18.0,25.43,South,171,2.0,4.0,26,-99.99,,,-99.99,,2013-03-02 13:31:00,
2013-03-02 05:41:00,51.0,18.0,25.43,South,188,2.0,4.0,27,-99.99,,,-99.99,,2013-03-02 13:41:00,
2013-03-02 05:52:00,52.0,18.0,25.43,South,180,1.0,3.0,26,-99.99,,,-99.99,,2013-03-02 13:52:00,
2013-03-02 06:01:00,53.0,18.0,25.43,SE,124,2.0,5.0,25,-99.99,,,-99.99,,2013-03-02 14:01:00,
2013-03-02 06:11:00,53.0,18.0,25.43,SE,124,2.0,5.0,25,-99.99,,,-99.99,,2013-03-02 14:11:00,
2013-03-02 06:21:00,53.0,17.0,25.43,SE,137,2.0,7.0,24,-99.99,,,-99.99,,2013-03-02 14:21:00,
2013-03-02 06:31:00,53.0,18.0,25.43,ESE,111,2.0,6.0,25,-99.99,,,-99.99,,2013-03-02 14:31:00,
2013-03-02 06:42:00,53.0,18.0,25.43,ESE,111,2.0,6.0,25,-99.99,,,-99.99,,2013-03-02 14:42:00,
2013-03-02 06:52:00,53.0,17.0,25.43,SE,132,1.0,6.0,24,-99.99,,,-99.99,,2013-03-02 14:52:00,
2013-03-02 07:01:00,53.0,17.0,25.43,SE,132,1.0,6.0,24,-99.99,,,-99.99,,2013-03-02 15:01:00,
2013-03-02 07:11:00,53.0,19.0,25.43,SE,136,2.0,4.0,26,-99.99,,,-99.99,,2013-03-02 15:11:00,
2013-03-02 07:21:00,53.0,19.0,25.43,SE,134,2.0,4.0,26,-99.99,,,-99.99,,2013-03-02 15:21:00,
2013-03-02 07:31:00,54.0,19.0,25.43,SE,126,2.0,5.0,25,-99.99,,,-99.99,,2013-03-02 15:31:00,
2013-03-02 07:41:00,57.0,19.0,25.40,ESE,110,3.0,6.0,22,-99.99,,,-99.99,,2013-03-02 15:41:00,
2013-03-02 07:51:00,59.0,18.0,25.40,East,85,3.0,7.0,20,-99.99,,,-99.99,,2013-03-02 15:51:00,
2013-03-02 08:01:00,61.0,17.0,25.40,East,86,3.0,9.0,18,-99.99,,,-99.99,,2013-03-02 16:01:00,
2013-03-02 08:11:00,63.0,18.0,25.40,ENE,65,6.0,11.0,17,-99.99,,,-99.99,,2013-03-02 16:11:00,
2013-03-02 08:21:00,64.0,17.0,25.37,ENE,61,7.0,12.0,16,-99.99,,,-99.99,,2013-03-02 16:21:00,
2013-03-02 08:31:00,65.0,16.0,25.37,ENE,61,7.0,11.0,15,-99.99,,,-99.99,,2013-03-02 16:31:00,
2013-03-02 08:41:00,66.0,17.0,25.40,NE,40,5.0,10.0,15,-99.99,,,-99.99,,2013-03-02 16:41:00,
2013-03-02 08:51:00,66.0,15.0,25.40,NE,50,6.0,10.0,14,-99.99,,,-99.99,,2013-03-02 16:51:00,
2013-03-02 09:01:00,67.0,16.0,25.40,NE,44,7.0,13.0,14,-99.99,,,-99.99,,2013-03-02 17:01:00,
2013-03-02 09:11:00,68.0,17.0,25.40,NE,37,7.0,13.0,14,-99.99,,,-99.99,,2013-03-02 17:11:00,
2013-03-02 09:21:00,68.0,17.0,25.40,NE,41,7.0,11.0,14,-99.99,,,-99.99,,2013-03-02 17:21:00,
2013-03-02 09:31:00,69.0,18.0,25.40,NNE,20,7.0,13.0,14,-99.99,,,-99.99,,2013-03-02 17:31:00,
2013-03-02 09:41:00,69.0,18.0,25.40,NNE,17,8.0,13.0,14,-99.99,,,-99.99,,2013-03-02 17:41:00,
2013-03-02 09:52:00,69.0,16.0,25.40,North,11,9.0,13.0,13,-99.99,,,-99.99,,2013-03-02 17:52:00,
2013-03-02 10:01:00,70.0,17.0,25.40,NNE,12,8.0,13.0,13,-99.99,,,-99.99,,2013-03-02 18:01:00,
2013-03-02 10:11:00,71.0,16.0,25.40,NNE,14,7.0,11.0,12,-99.99,,,-99.99,,2013-03-02 18:11:00,
2013-03-02 10:21:00,72.0,15.0,25.40,NNE,27,6.0,12.0,11,-99.99,,,-99.99,,2013-03-02 18:21:00,
2013-03-02 10:31:00,72.0,15.0,25.40,North,1,7.0,11.0,11,-99.99,,,-99.99,,2013-03-02 18:31:00,
2013-03-02 10:41:00,72.0,15.0,25.40,North,1,5.0,12.0,11,-99.99,,,-99.99,,2013-03-02 18:41:00,
2013-03-02 10:51:00,72.0,7.0,25.37,SSW,193,8.0,13.0,8,-99.99,,,-99.99,,2013-03-02 18:51:00,
2013-03-02 11:01:00,72.0,7.0,25.37,SSW,193,8.0,13.0,8,-99.99,,,-99.99,,2013-03-02 19:01:00,
2013-03-02 11:21:00,73.0,5.0,25.37,South,175,6.0,10.0,7,-99.99,,,-99.99,,2013-03-02 19:21:00,
2013-03-02 11:31:00,73.0,8.0,25.37,South,171,6.0,10.0,8,-99.99,,,-99.99,,2013-03-02 19:31:00,
2013-03-02 11:42:00,74.0,6.0,25.37,SE,135,2.0,4.0,7,-99.99,,,-99.99,,2013-03-02 19:42:00,
2013-03-02 11:52:00,73.0,5.0,25.37,SSW,198,6.0,14.0,7,-99.99,,,-99.99,,2013-03-02 19:52:00,
2013-03-02 12:01:00,74.0,9.0,25.40,South,177,7.0,13.0,8,-99.99,,,-99.99,,2013-03-02 20:01:00,
2013-03-02 12:11:00,73.0,8.0,25.37,South,186,9.0,14.0,8,-99.99,,,-99.99,,2013-03-02 20:11:00,
2013-03-02 12:21:00,74.0,9.0,25.40,SSW,205,4.0,10.0,8,-99.99,,,-99.99,,2013-03-02 20:21:00,
2013-03-02 12:31:00,74.0,12.0,25.40,SSW,205,6.0,14.0,9,-99.99,,,-99.99,,2013-03-02 20:31:00,
2013-03-02 12:41:00,74.0,9.0,25.40,SSW,205,8.0,15.0,8,-99.99,,,-99.99,,2013-03-02 20:41:00,
2013-03-02 12:52:00,74.0,9.0,25.40,SSW,206,5.0,10.0,8,-99.99,,,-99.99,,2013-03-02 20:52:00,
2013-03-02 13:02:00,74.0,9.0,25.40,SW,217,7.0,13.0,8,-99.99,,,-99.99,,2013-03-02 21:02:00,
2013-03-02 13:11:00,74.0,9.0,25.40,SW,216,6.0,10.0,8,-99.99,,,-99.99,,2013-03-02 21:11:00,
2013-03-02 13:21:00,75.0,10.0,25.40,West,261,6.0,14.0,8,-99.99,,,-99.99,,2013-03-02 21:21:00,
2013-03-02 13:31:00,74.0,14.0,25.40,WSW,252,5.0,11.0,10,-99.99,,,-99.99,,2013-03-02 21:31:00,
2013-03-02 13:41:00,74.0,16.0,25.43,West,263,5.0,11.0,11,-99.99,,,-99.99,,2013-03-02 21:41:00,
2013-03-02 13:52:00,74.0,18.0,25.43,WSW,258,4.0,8.0,12,-99.99,,,-99.99,,2013-03-02 21:52:00,
2013-03-02 14:01:00,74.0,18.0,25.43,WSW,258,4.0,8.0,12,-99.99,,,-99.99,,2013-03-02 22:01:00,
2013-03-02 14:11:00,74.0,18.0,25.43,WNW,291,4.0,13.0,12,-99.99,,,-99.99,,2013-03-02 22:11:00,
2013-03-02 14:21:00,74.0,18.0,25.43,West,264,5.0,13.0,12,-99.99,,,-99.99,,2013-03-02 22:21:00,
2013-03-02 14:31:00,73.0,17.0,25.43,WNW,289,5.0,14.0,12,-99.99,,,-99.99,,2013-03-02 22:31:00,
2013-03-02 14:42:00,73.0,17.0,25.43,West,262,5.0,11.0,12,-99.99,,,-99.99,,2013-03-02 22:42:00,
2013-03-02 14:51:00,72.0,18.0,25.43,WSW,246,6.0,11.0,13,-99.99,,,-99.99,,2013-03-02 22:51:00,
2013-03-02 15:01:00,72.0,20.0,25.46,WSW,258,5.0,10.0,14,-99.99,,,-99.99,,2013-03-02 23:01:00,
2013-03-02 15:11:00,72.0,20.0,25.46,West,274,4.0,12.0,14,-99.99,,,-99.99,,2013-03-02 23:11:00,
2013-03-02 15:21:00,72.0,20.0,25.46,West,274,4.0,12.0,14,-99.99,,,-99.99,,2013-03-02 23:21:00,
2013-03-02 15:31:00,72.0,18.0,25.43,WSW,239,3.0,8.0,13,-99.99,,,-99.99,,2013-03-02 23:31:00,
2013-03-02 15:41:00,72.0,18.0,25.43,West,263,2.0,6.0,13,-99.99,,,-99.99,,2013-03-02 23:41:00,
2013-03-02 15:52:00,72.0,20.0,25.46,West,261,3.0,8.0,14,-99.99,,,-99.99,,2013-03-02 23:52:00,
2013-03-02 16:02:00,72.0,20.0,25.46,West,261,3.0,8.0,14,-99.99,,,-99.99,,2013-03-03 00:02:00,
2013-03-02 16:11:00,72.0,20.0,25.46,West,261,3.0,8.0,14,-99.99,,,-99.99,,2013-03-03 00:11:00,
2013-03-02 16:22:00,71.0,19.0,25.46,SSW,212,3.0,7.0,14,-99.99,,,-99.99,,2013-03-03 00:22:00,
2013-03-02 16:32:00,71.0,19.0,25.43,South,177,3.0,7.0,14,-99.99,,,-99.99,,2013-03-03 00:32:00,
2013-03-02 16:42:00,71.0,19.0,25.43,SSW,208,6.0,9.0,14,-99.99,,,-99.99,,2013-03-03 00:42:00,
2013-03-02 16:52:00,71.0,19.0,25.43,SSW,208,6.0,9.0,14,-99.99,,,-99.99,,2013-03-03 00:52:00,
2013-03-02 17:01:00,69.0,19.0,25.43,SSW,207,4.0,6.0,15,-99.99,,,-99.99,,2013-03-03 01:01:00,
2013-03-02 17:11:00,68.0,19.0,25.43,SW,225,3.0,5.0,15,-99.99,,,-99.99,,2013-03-03 01:11:00,
2013-03-02 17:21:00,68.0,20.0,25.43,WSW,237,2.0,4.0,16,-99.99,,,-99.99,,2013-03-03 01:21:00,
2013-03-02 17:31:00,68.0,22.0,25.46,SW,221,2.0,3.0,17,-99.99,,,-99.99,,2013-03-03 01:31:00,
2013-03-02 17:41:00,67.0,23.0,25.46,SW,222,2.0,4.0,19,-99.99,,,-99.99,,2013-03-03 01:41:00,
2013-03-02 17:52:00,67.0,22.0,25.46,NW,309,2.0,5.0,18,-99.99,,,-99.99,,2013-03-03 01:52:00,
2013-03-02 18:01:00,66.0,20.0,25.43,WNW,283,1.0,3.0,17,-99.99,,,-99.99,,2013-03-03 02:01:00,
2013-03-02 18:11:00,65.0,23.0,25.46,SSW,209,1.0,1.0,20,-99.99,,,-99.99,,2013-03-03 02:11:00,
2013-03-02 18:21:00,64.0,25.0,25.49,WSW,245,1.0,1.0,23,-99.99,,,-99.99,,2013-03-03 02:21:00,
2013-03-02 18:31:00,61.0,25.0,25.49,North,8,1.0,1.0,25,-99.99,,,-99.99,,2013-03-03 02:31:00,
2013-03-02 18:41:00,59.0,27.0,25.52,SSE,160,1.0,1.0,29,-99.99,,,-99.99,,2013-03-03 02:41:00,
2013-03-02 18:52:00,57.0,26.0,25.55,NE,38,1.0,2.0,30,-99.99,,,-99.99,,2013-03-03 02:52:00,
2013-03-02 19:01:00,56.0,27.0,25.55,NNW,329,1.0,1.0,32,-99.99,,,-99.99,,2013-03-03 03:01:00,
2013-03-02 19:11:00,54.0,28.0,25.58,NE,34,1.0,1.0,37,-99.99,,,-99.99,,2013-03-03 03:11:00,
2013-03-02 19:21:00,52.0,27.0,25.61,North,5,1.0,1.0,38,-99.99,,,-99.99,,2013-03-03 03:21:00,
2013-03-02 19:31:00,51.0,28.0,25.61,WSW,257,1.0,1.0,41,-99.99,,,-99.99,,2013-03-03 03:31:00,
2013-03-02 19:41:00,49.0,29.0,25.66,SSE,167,1.0,2.0,46,-99.99,,,-99.99,,2013-03-03 03:41:00,
2013-03-02 19:51:00,47.0,30.0,25.72,East,81,1.0,1.0,51,-99.99,,,-99.99,,2013-03-03 03:51:00,
2013-03-02 20:01:00,47.0,30.0,25.72,South,179,1.0,2.0,52,-99.99,,,-99.99,,2013-03-03 04:01:00,
2013-03-02 20:11:00,45.0,29.0,25.75,SE,138,1.0,2.0,54,-99.99,,,-99.99,,2013-03-03 04:11:00,
2013-03-02 20:21:00,45.0,31.0,25.78,South,178,1.0,3.0,57,-99.99,,,-99.99,,2013-03-03 04:21:00,
2013-03-02 20:31:00,44.0,29.0,25.75,NNE,17,1.0,1.0,56,-99.99,,,-99.99,,2013-03-03 04:31:00,
2013-03-02 20:41:00,43.0,30.0,25.81,NNW,338,1.0,2.0,60,-99.99,,,-99.99,,2013-03-03 04:41:00,
2013-03-02 20:51:00,43.0,30.0,25.81,SSE,148,1.0,2.0,60,-99.99,,,-99.99,,2013-03-03 04:51:00,
2013-03-02 21:01:00,42.0,30.0,25.84,SSE,167,1.0,2.0,63,-99.99,,,-99.99,,2013-03-03 05:01:00,
2013-03-02 21:11:00,41.0,29.0,25.81,South,181,1.0,2.0,63,-99.99,,,-99.99,,2013-03-03 05:11:00,
2013-03-02 21:22:00,40.0,28.0,25.81,SSE,163,1.0,1.0,63,-99.99,,,-99.99,,2013-03-03 05:22:00,
2013-03-02 21:32:00,40.0,29.0,25.84,SSE,155,1.0,1.0,65,-99.99,,,-99.99,,2013-03-03 05:32:00,
2013-03-02 21:42:00,40.0,30.0,25.84,South,184,1.0,1.0,66,-99.99,,,-99.99,,2013-03-03 05:42:00,
2013-03-02 21:52:00,39.0,29.0,25.87,SSE,163,1.0,1.0,68,-99.99,,,-99.99,,2013-03-03 05:52:00,
2013-03-02 22:01:00,38.0,28.0,25.87,SSE,166,1.0,1.0,68,-99.99,,,-99.99,,2013-03-03 06:01:00,
2013-03-02 22:11:00,38.0,28.0,25.87,South,174,1.0,1.0,68,-99.99,,,-99.99,,2013-03-03 06:11:00,
2013-03-02 22:21:00,37.0,28.0,25.87,SSE,166,1.0,1.0,69,-99.99,,,-99.99,,2013-03-03 06:21:00,
2013-03-02 22:31:00,36.0,28.0,25.90,SSE,164,1.0,1.0,72,-99.99,,,-99.99,,2013-03-03 06:31:00,
2013-03-02 22:52:00,35.0,27.0,25.90,SE,132,1.0,1.0,73,-99.99,,,-99.99,,2013-03-03 06:52:00,
2013-03-02 23:01:00,35.0,27.0,25.90,SE,132,1.0,1.0,73,-99.99,,,-99.99,,2013-03-03 07:01:00,
2013-03-02 23:11:00,35.0,28.0,25.93,SE,142,1.0,1.0,75,-99.99,,,-99.99,,2013-03-03 07:11:00,
2013-03-02 23:21:00,35.0,28.0,25.93,SE,145,1.0,1.0,76,-99.99,,,-99.99,,2013-03-03 07:21:00,
2013-03-02 23:31:00,35.0,29.0,25.96,NE,51,1.0,1.0,77,-99.99,,,-99.99,,2013-03-03 07:31:00,
2013-03-02 23:42:00,34.0,28.0,25.96,ENE,72,1.0,1.0,78,-99.99,,,-99.99,,2013-03-03 07:42:00,
2013-03-02 23:51:00,34.0,28.0,25.96,NNE,31,1.0,1.0,78,-99.99,,,-99.99,,2013-03-03 07:51:00,